EHI
1 1 0 0 0 0 0 0 0 0 0 0 1 1 2 1 0 0 1 4 8 9 5 4 11 17 20 20 19 17 14 11 8 5 3 1 0 0 0 0 0 0 0 0 0 0 0 0 0
1 0 0 0 0 0 0 0 0 0 0 0 1 3 4 2 1 0 2 6 11 11 6 6 12 18 20 20 19 17 15 11 7 5 3 2 1 1 0 0 0 0 0 0 0 0 0 0 0
0 0 0 0 0 0 0 0 1 1 1 0 2 4 5 3 1 1 4 10 15 14 8 9 16 21 20 18 18 16 13 9 6 4 3 3 3 2 1 0 0 0 0 0 0 0 0 0 0
0 0 0 0 0 0 0 1 3 4 2 1 3 5 5 3 3 6 14 20 22 17 11 14 21 23 19 16 15 13 10 7 4 3 3 3 2 2 1 0 0 0 0 0 0 0 0 0 0
0 0 0 0 0 0 0 1 3 4 3 3 6 7 5 3 7 17 25 29 29 24 16 18 26 26 19 14 12 10 7 5 4 3 2 1 1 1 1 1 0 0 0 0 0 0 0 0 0
0 0 0 0 0 0 0 1 2 4 4 6 9 9 5 4 14 26 31 30 32 31 24 22 26 25 18 13 10 8 5 5 4 3 1 0 0 0 1 1 0 0 0 0 0 0 0 0 0
0 0 0 0 0 0 1 1 3 4 6 8 11 11 9 10 21 33 35 32 33 34 32 27 22 18 14 10 9 7 5 4 3 2 1 0 0 0 0 0 0 0 0 0 0 0 0 0 0
0 0 0 0 0 0 1 2 3 4 7 10 12 12 16 24 35 43 45 42 37 35 34 29 20 11 7 6 6 6 5 4 3 1 0 0 0 0 0 0 0 0 0 0 0 1 1 0 0
0 0 0 0 0 0 1 2 3 5 11 14 14 19 34 51 58 58 58 53 46 39 34 29 21 10 4 2 3 5 4 3 2 1 0 0 0 0 0 0 0 0 0 0 0 1 1 0 0
0 0 0 0 0 0 1 2 4 9 14 19 25 40 63 75 73 67 63 58 52 46 37 30 22 12 3 1 2 4 3 2 1 0 0 0 0 0 0 0 0 0 0 0 0 1 1 0 0
0 0 0 0 0 0 1 2 5 10 13 22 43 67 82 84 77 68 60 54 53 51 43 33 25 16 6 2 2 3 2 1 0 0 0 0 0 0 0 0 0 0 0 0 0 0 0 0 0
0 0 0 0 0 0 1 2 5 8 9 24 56 80 86 84 77 65 54 49 51 53 47 38 30 22 12 5 3 2 1 0 0 0 0 0 0 0 0 0 0 0 0 0 0 0 0 0 0
0 0 0 0 0 0 2 3 4 6 13 35 66 82 84 82 75 62 51 48 50 54 50 42 35 28 17 10 6 4 1 0 0 0 0 0 0 0 0 0 0 0 0 0 0 0 0 0 0
0 0 0 0 0 1 2 3 3 8 23 50 73 80 79 78 71 64 58 52 50 52 50 45 38 30 20 13 8 6 4 1 0 0 0 0 0 0 0 0 0 0 0 0 0 0 0 0 0
0 0 0 0 0 0 1 2 3 12 33 56 70 73 72 69 65 63 61 56 52 52 50 45 38 30 22 14 9 8 7 3 1 0 0 0 0 0 0 0 0 0 0 0 0 0 0 0 0
0 0 0 0 0 0 0 1 2 14 35 51 57 60 59 55 52 54 55 53 52 54 52 46 38 30 20 12 8 8 7 3 1 0 0 0 0 0 0 0 0 0 0 0 0 0 0 0 0
0 0 0 0 0 0 0 0 2 14 31 43 45 46 45 40 41 47 52 53 52 53 54 50 41 30 20 12 7 5 4 2 0 0 0 0 0 0 0 0 0 0 0 0 0 0 0 0 0
0 0 0 0 0 0 0 0 2 11 25 34 34 34 35 33 34 43 52 56 55 51 49 49 44 34 24 15 7 4 2 1 0 0 0 0 0 0 0 0 0 0 0 0 0 0 0 0 0
0 0 0 0 0 0 0 0 3 10 20 25 24 24 28 30 32 39 50 59 61 54 47 46 44 37 27 18 9 4 2 1 0 0 0 0 0 0 0 0 0 0 0 0 0 0 0 0 0
0 0 0 0 0 0 0 1 4 9 14 16 15 16 21 28 33 39 48 58 62 58 52 47 42 37 29 20 11 6 3 2 1 0 0 0 0 0 0 0 0 0 0 0 0 0 0 0 0
0 0 0 0 0 0 0 1 4 6 7 7 7 9 16 25 34 41 48 53 56 56 52 46 40 36 31 22 14 9 7 5 4 2 1 1 1 1 0 0 0 0 0 0 0 0 0 0 0
0 0 0 0 0 0 0 1 2 2 1 1 3 7 11 20 30 37 42 47 47 45 44 41 37 35 31 25 18 14 11 8 7 6 4 4 3 2 1 0 0 0 0 0 0 0 0 0 0
0 0 0 0 0 0 0 0 0 0 0 0 2 6 10 15 24 30 35 39 39 36 35 36 34 32 30 26 21 18 14 10 9 9 8 6 4 2 1 0 0 0 0 0 0 0 0 0 0
0 0 0 0 0 0 0 0 0 0 0 0 1 4 8 13 20 26 30 33 33 31 31 31 30 29 29 26 23 20 16 12 9 9 8 7 4 3 2 1 0 0 0 0 0 0 0 0 0
0 0 0 0 0 0 0 0 0 0 0 0 0 2 7 12 18 23 27 29 28 26 26 26 25 25 26 26 23 21 17 12 8 8 8 7 5 4 3 1 0 0 0 0 0 0 0 0 0
0 0 0 0 0 0 0 0 0 0 0 0 1 3 7 11 15 20 22 21 20 19 20 21 19 18 20 21 21 20 16 10 7 7 7 6 5 4 3 2 1 0 0 0 0 0 0 0 0
0 0 0 0 0 0 0 0 0 0 0 1 2 4 6 8 11 14 14 12 11 13 16 17 15 14 14 14 15 15 12 8 6 6 5 5 4 3 2 2 1 0 0 0 0 0 0 0 0
0 0 0 0 0 0 0 0 0 0 0 1 2 4 4 5 7 7 6 5 5 8 12 14 13 12 10 9 9 8 7 6 4 4 4 4 3 2 1 1 1 0 0 0 0 0 0 0 0
0 0 0 0 0 0 0 0 0 0 0 0 1 2 4 5 4 3 3 3 3 5 8 10 10 10 8 7 5 4 4 4 3 2 3 3 2 1 0 0 0 0 0 0 0 0 0 0 0
0 0 0 0 0 0 0 0 0 0 0 0 0 2 5 5 4 2 1 1 2 4 6 7 8 7 7 6 5 4 4 4 3 1 1 2 1 0 0 0 0 0 0 0 0 0 0 0 0
Wind_Speed
4 4 2 1 3 4 2 2 1 1 0 1 4 4 6 4 4 3 4 13 16 15 11 15 18 17 17 17 17 17 17 17 17 16 16 15 15 15 14 14 14 14 14 14 14 14 15 15 15
3 3 1 2 4 2 3 2 1 1 2 4 4 4 4 3 4 8 8 11 17 15 11 13 18 18 17 17 17 16 16 16 16 16 15 15 14 14 14 14 13 13 14 14 14 14 15 15 14
3 2 3 4 3 2 2 2 2 2 3 3 3 3 3 4 7 7 8 15 15 12 10 13 20 18 17 17 16 16 16 16 15 15 14 14 14 14 14 13 13 13 13 14 14 14 14 14 14
2 3 4 4 1 4 4 3 3 3 1 2 4 4 3 3 6 8 15 17 15 11 9 13 20 18 17 17 16 15 15 15 15 14 14 14 13 13 13 13 13 13 13 13 13 14 14 13 12
3 4 4 2 4 5 4 4 5 4 2 2 4 4 3 4 9 15 17 16 15 11 8 11 19 18 17 16 16 15 15 15 14 14 13 13 13 13 13 13 13 12 13 13 13 13 13 12 11
4 4 4 2 5 4 3 4 5 4 3 4 5 4 2 4 12 16 15 14 13 13 10 11 18 18 17 16 16 15 15 14 14 14 13 12 12 12 12 12 12 12 12 12 12 12 11 11 10
4 4 2 2 3 4 2 3 6 5 4 4 6 6 3 5 9 13 12 12 11 10 9 8 10 13 16 16 15 15 14 14 14 13 13 13 12 12 12 11 11 11 11 11 11 11 11 10 9
4 4 1 2 2 4 2 1 3 5 4 5 6 8 7 9 12 12 11 10 10 8 8 7 7 7 8 9 15 15 14 14 13 13 13 13 12 12 11 10 10 11 10 10 11 10 10 9 9
4 4 2 4 4 3 1 2 1 3 5 3 3 5 7 18 17 15 13 10 10 10 7 7 7 7 6 6 11 12 13 13 12 11 13 10 5 5 6 8 10 10 10 10 10 9 9 8 8
4 4 7 5 4 2 2 0 2 4 3 2 4 7 17 20 18 18 18 17 15 14 11 8 8 7 7 7 6 4 5 5 5 4 6 4 4 4 5 7 9 9 9 9 8 8 8 6 4
6 7 5 5 5 3 2 2 3 7 5 8 10 16 21 20 18 17 16 16 15 14 13 10 9 8 7 4 5 3 3 3 4 5 5 5 4 3 3 2 3 4 5 4 5 5 4 4 3
5 6 5 4 2 2 3 3 3 8 10 7 12 21 23 22 20 19 18 16 13 13 13 11 9 8 7 5 5 4 3 3 3 4 6 4 3 3 2 2 2 2 2 3 3 3 3 3 3
5 5 4 6 6 4 4 5 5 8 6 8 16 20 21 20 17 14 12 13 13 14 13 12 11 9 7 6 5 5 4 4 4 4 4 5 3 3 3 2 2 2 2 3 3 3 3 3 3
5 4 5 6 5 3 3 3 3 7 6 12 17 19 18 18 17 14 13 14 14 14 13 12 12 10 8 6 5 5 4 4 4 4 5 5 4 3 3 3 2 2 2 2 2 3 3 2 2
2 2 5 3 2 2 2 2 4 4 9 12 15 16 15 14 14 16 17 16 15 14 12 12 12 10 9 8 7 5 5 5 4 4 5 5 5 4 4 3 3 2 2 3 3 3 2 2 2
2 2 2 5 2 1 4 4 5 3 10 11 12 13 13 12 13 12 12 12 12 13 13 13 13 12 10 8 7 5 5 5 4 4 4 6 6 5 4 3 3 3 3 3 3 2 2 2 2
4 1 2 5 2 2 2 4 4 3 9 10 11 12 12 11 11 11 12 13 13 13 14 14 12 12 11 9 6 6 5 5 5 4 4 5 6 6 5 4 3 4 3 2 3 2 2 2 2
3 2 1 3 3 3 1 4 4 4 7 8 8 9 10 12 14 12 12 12 12 12 12 13 11 11 10 7 6 5 5 5 4 5 5 6 6 7 5 4 4 4 3 3 2 3 2 2 2
4 2 3 5 3 1 3 4 3 3 5 6 6 8 10 11 9 9 10 12 12 11 12 12 12 12 10 8 8 7 7 6 5 5 7 7 7 7 6 4 4 4 4 4 4 3 3 2 2
3 2 4 5 2 0 2 3 2 2 5 7 8 8 9 7 6 8 9 11 13 14 13 13 12 12 12 10 8 5 5 5 5 5 6 7 7 7 7 6 5 5 4 4 4 3 3 2 2
4 5 4 4 4 3 1 4 3 2 1 2 3 5 6 8 9 9 9 10 11 12 14 13 13 13 12 10 6 5 3 3 4 5 6 7 8 8 7 7 6 6 5 5 5 5 5 3 1
5 6 6 3 0 3 2 2 5 3 3 3 4 4 4 5 7 7 8 9 10 11 11 11 12 12 12 12 10 11 9 7 7 6 6 7 8 8 8 8 7 7 5 5 5 5 4 4 3
7 3 3 2 3 0 1 2 7 2 3 5 4 4 3 4 6 7 8 9 9 8 9 9 10 11 12 12 13 13 9 7 5 5 7 7 7 7 8 8 7 7 5 6 6 5 5 4 4
5 5 6 5 5 1 2 3 6 4 5 5 3 3 3 4 5 6 6 6 6 7 8 9 10 11 11 13 13 13 13 10 9 9 8 7 5 6 8 8 7 7 6 6 6 6 6 4 4
5 6 4 4 3 4 1 2 8 6 5 4 4 3 3 3 4 5 6 6 5 6 7 8 10 11 11 12 13 13 13 12 12 11 10 8 6 5 8 8 7 6 6 6 6 5 5 5 5
6 10 8 5 5 4 1 4 7 3 3 2 2 2 2 2 3 3 4 5 5 6 6 7 8 9 10 11 11 10 11 8 8 9 9 9 7 7 8 8 8 7 7 7 6 5 5 5 5
7 5 7 8 3 0 4 5 7 2 2 1 0 1 2 3 2 3 4 5 5 5 5 6 7 6 8 9 9 9 10 9 9 9 8 7 6 7 8 9 8 8 7 7 7 4 5 5 5
7 10 7 7 7 3 3 4 5 5 4 2 1 2 2 2 3 3 3 4 3 3 3 4 5 6 6 7 8 8 9 10 9 9 9 9 8 8 9 9 8 7 7 7 6 5 5 5 4
5 5 6 5 5 7 3 7 6 6 5 4 3 2 2 2 2 2 3 3 4 4 3 3 4 5 6 6 6 7 7 8 8 8 9 9 8 9 9 9 8 8 8 7 7 6 6 6 5
6 8 9 7 4 5 5 8 3 4 4 3 2 2 2 2 2 2 2 3 4 4 3 3 4 5 5 5 5 6 7 7 8 9 9 9 9 9 9 8 8 8 8 8 8 8 7 7 7
Wind_Direction
181 153 146 109 56 45 338 289 241 339 55 135 141 136 138 139 168 178 129 139 136 143 148 148 145 140 134 130 128 126 125 124 124 125 125 124 123 122 120 118 115 113 112 110 109 108 108 109 110
136 149 120 62 73 48 306 279 231 255 161 112 95 87 92 88 83 112 132 142 140 143 144 147 147 142 138 134 131 130 129 128 127 127 126 125 124 123 121 119 116 115 114 113 112 111 111 111 111
148 162 87 71 93 174 248 254 198 107 106 108 97 72 92 128 131 139 146 142 138 141 142 153 148 146 142 139 136 134 133 132 131 129 129 128 126 125 122 120 118 117 116 115 115 114 113 113 113
118 58 56 68 239 231 225 215 172 133 68 66 104 87 73 96 141 141 139 142 139 140 144 156 150 148 146 143 140 139 137 136 134 132 132 130 129 127 125 123 120 119 118 116 116 116 116 117 116
66 77 58 15 269 254 240 212 176 161 157 108 107 103 60 26 115 132 141 144 143 142 147 155 152 151 150 147 145 144 142 140 139 136 135 133 132 131 129 126 123 121 119 118 119 119 118 119 119
63 70 82 284 278 274 256 199 159 159 150 125 118 108 63 108 129 142 145 144 146 147 147 152 156 154 154 152 150 149 147 145 143 141 139 138 136 133 130 128 126 123 121 121 121 120 119 118 118
109 105 158 235 283 301 283 169 162 162 156 161 133 116 115 141 143 142 140 139 142 146 145 149 154 157 157 156 154 152 151 149 147 146 142 139 137 135 134 130 128 127 124 123 123 121 119 116 116
128 107 154 250 254 278 296 85 151 150 158 130 131 148 170 165 145 135 132 135 141 145 146 146 147 148 151 156 159 157 155 154 152 149 146 144 142 139 136 131 133 131 129 126 124 121 119 118 118
103 86 206 221 210 253 312 30 8 106 116 129 143 162 156 144 143 141 141 145 154 158 155 149 147 144 142 150 165 161 160 160 157 154 151 142 119 118 127 138 140 136 133 128 123 120 117 115 120
113 163 222 218 206 232 305 286 192 125 140 148 95 104 132 146 153 157 161 165 168 169 168 159 153 149 148 161 153 146 147 147 137 129 126 111 110 121 130 151 146 140 132 125 117 113 108 96 95
167 200 228 237 233 232 260 254 184 146 202 205 174 151 150 157 163 168 171 173 173 170 170 166 160 155 155 151 143 136 126 126 124 123 119 119 114 115 109 107 117 112 107 91 94 89 87 96 101
188 237 231 253 238 219 214 210 196 188 217 200 161 154 158 167 174 177 175 174 171 172 175 168 165 161 159 151 148 142 138 138 138 136 134 131 128 121 119 108 101 89 88 93 85 91 97 105 113
218 257 252 256 271 241 220 222 216 233 224 141 143 156 168 174 177 178 174 171 171 176 176 172 169 168 164 154 157 156 149 148 146 142 145 144 144 142 133 124 116 112 108 109 106 98 103 115 118
226 239 277 287 278 247 210 248 199 247 163 145 154 167 176 179 176 173 174 177 178 179 178 175 175 172 166 164 161 155 152 149 149 154 156 155 151 148 142 139 135 132 127 117 115 114 113 117 121
273 294 316 299 273 258 140 301 234 231 145 155 167 172 179 182 181 184 182 180 179 178 177 178 178 174 171 168 167 159 157 156 163 163 164 166 162 158 152 152 154 151 134 120 108 104 102 115 116
33 46 318 301 317 323 126 250 272 172 153 163 172 176 182 187 189 191 184 179 176 174 176 181 184 179 177 171 168 161 163 165 170 169 171 177 174 165 157 162 167 155 139 130 125 115 103 100 109
32 98 257 306 336 39 114 248 277 177 163 172 179 183 184 188 192 192 187 183 180 179 178 181 183 180 179 173 168 165 166 173 173 172 175 182 179 170 166 170 168 153 144 145 146 114 117 126 127
209 195 251 279 311 6 326 260 269 189 176 182 184 187 188 196 201 192 187 183 181 181 180 181 180 179 174 168 161 161 172 177 174 180 180 178 180 175 169 169 167 156 146 148 138 122 100 109 123
169 182 266 267 278 306 275 274 265 197 174 184 192 196 200 208 200 182 184 180 178 180 182 183 183 178 174 176 177 180 187 184 184 188 181 181 182 177 173 176 166 163 163 165 151 129 121 105 108
186 239 272 295 334 263 286 301 281 201 202 197 197 206 208 197 177 178 179 181 184 185 187 186 187 183 182 187 182 182 175 179 185 185 182 184 184 180 184 177 175 171 159 159 158 145 134 125 137
207 204 230 255 341 4 23 335 324 298 264 227 224 224 211 193 186 182 179 183 184 189 190 190 190 189 186 179 163 155 139 137 168 183 186 189 186 185 185 182 175 173 168 175 176 164 154 154 146
237 223 211 219 122 298 58 290 289 289 287 255 246 235 215 193 175 178 182 184 190 193 190 190 189 190 185 176 175 176 180 186 190 185 184 182 186 187 186 181 178 176 175 176 180 170 162 151 158
209 200 181 184 164 232 12 169 281 313 276 269 259 247 222 191 178 182 188 191 192 188 189 188 188 191 187 183 185 185 187 187 173 171 176 180 185 188 188 181 178 178 179 179 175 167 169 165 162
162 78 59 53 82 188 231 166 269 248 238 264 264 254 219 191 178 179 179 178 184 183 186 183 187 194 189 187 189 190 187 180 173 178 183 184 182 186 188 182 181 182 180 181 179 175 175 178 169
125 100 45 15 26 245 257 188 247 251 239 241 251 249 215 182 170 172 170 169 182 185 185 184 187 194 190 191 193 192 190 185 185 185 187 185 183 189 191 186 183 183 183 181 173 173 180 181 179
167 144 155 178 204 264 321 232 253 258 269 271 238 216 146 139 160 172 177 170 179 190 187 185 189 195 190 191 194 190 188 187 190 190 186 189 191 191 184 183 185 185 180 179 174 176 184 184 190
141 169 158 127 136 103 283 286 301 267 312 323 353 124 148 146 144 163 164 162 168 184 188 185 187 188 189 191 190 190 190 190 192 188 185 187 187 185 180 182 185 183 180 177 171 179 184 182 193
141 143 112 124 144 205 278 274 255 258 257 253 225 194 174 149 148 154 159 155 156 164 176 173 175 184 193 191 194 196 195 190 189 185 185 186 185 181 175 180 182 181 181 177 173 175 180 179 189
116 109 111 114 146 153 212 263 230 219 213 213 217 203 178 168 164 163 160 141 128 122 141 157 165 174 180 186 189 190 189 188 185 187 188 186 182 178 178 179 179 181 183 179 179 184 181 184 189
149 157 145 146 185 163 167 258 278 213 207 198 198 178 157 148 149 149 144 129 124 129 136 153 165 173 178 180 182 185 182 184 188 191 187 181 181 181 179 175 180 186 187 184 186 192 189 188 191